This is the latest recevied weather packets stored in our database for station/object N2PPN. If no packets are shown the sender has not sent any weather packets the latest 10 day(s).
| Time | Temp. | Humidity | Pressure | Rain* | Wind** | Luminosity | Snow |
|---|---|---|---|---|---|---|---|
| 1777810278 | 8.33° C | 58% | 1014.4 hPa | 0 mm | - | 230 W/m² | - |
| 1777809968 | 7.78° C | 60% | 1014 hPa | 0 mm | - | 216 W/m² | - |
| 1777809666 | 7.78° C | 61% | 1014.1 hPa | 0 mm | - | 116 W/m² | - |
| 1777809364 | 7.78° C | 60% | 1013.9 hPa | 0 mm | - | 91 W/m² | - |
| 1777809061 | 7.78° C | 60% | 1014.3 hPa | 0 mm | - | 101 W/m² | - |
| 1777808759 | 7.78° C | 60% | 1014.2 hPa | 0 mm | - | 98 W/m² | - |
| 1777808455 | 7.78° C | 61% | 1014.1 hPa | 0 mm | - | 88 W/m² | - |
| 1777808153 | 7.78° C | 60% | 1014.4 hPa | 0 mm | - | 91 W/m² | - |
| 1777807851 | 7.22° C | 61% | 1014.1 hPa | 0 mm | - | 87 W/m² | - |
| 1777807549 | 7.22° C | 60% | 1014.1 hPa | 0 mm | - | 84 W/m² | - |
| 1777807245 | 7.22° C | 60% | 1014.1 hPa | 0 mm | - | 66 W/m² | - |
| 1777806942 | 7.22° C | 62% | 1014 hPa | 0 mm | - | 76 W/m² | - |
| 1777806638 | 7.22° C | 61% | 1013.8 hPa | 0 mm | - | 61 W/m² | - |
| 1777806334 | 7.22° C | 62% | 1013.8 hPa | 0 mm | - | 65 W/m² | - |
| 1777806031 | 7.22° C | 62% | 1013.8 hPa | 0 mm | - | 63 W/m² | - |
| 1777805727 | 6.67° C | 62% | 1013.8 hPa | 0 mm | - | 54 W/m² | - |
| 1777805425 | 6.67° C | 63% | 1013.8 hPa | 0 mm | - | 43 W/m² | - |
| 1777805123 | 6.67° C | 63% | 1013.8 hPa | 0 mm | - | 37 W/m² | - |
| 1777804821 | 6.67° C | 62% | 1013.6 hPa | 0 mm | - | 33 W/m² | - |
| 1777804518 | 6.67° C | 62% | 1013.4 hPa | 0 mm | - | 30 W/m² | - |
| 1777804216 | 6.67° C | 63% | 1013.4 hPa | 0 mm | - | 24 W/m² | - |
| 1777803912 | 6.67° C | 63% | 1013.4 hPa | 0 mm | - | 20 W/m² | - |
| 1777803609 | 6.67° C | 62% | 1013.2 hPa | 0 mm | - | 16 W/m² | - |
| 1777803305 | 6.67° C | 62% | 1013.2 hPa | 0 mm | - | 13 W/m² | - |
| 1777803003 | 6.67° C | 62% | 1013.1 hPa | 0 mm | - | 10 W/m² | - |
* Rain latest hour (hover to see other rain measurements)
** Current wind speed in m/s (hover to see current wind gust speed)